Location: Wildlife_Club
(35.6000°N, 81.4330°W)
Time: 17:27:36
(UTC-04:00)

Amateur Radio Satellites - All Passes

Search period start: 23 August 2017 16:57
Search period end: 24 August 2017 16:57
Location: Wildlife_Club, 35.6000°N, 81.4330°W

Satellite Date Start Highest point End Downlink Frequencies (MHz)
Time Altitude Azimuth
Tancredo 1 23 Aug 17:06:57 17:08:02 12° 232° (SW) 17:09:08 437.200
CUBESAT XI-V 23 Aug 17:19:53 17:24:15 36° 98° (E) 17:28:33 437.345
YUBILEINY 23 Aug 17:25:58 17:34:21 48° 282° (WNW) 17:42:45 435.215
ISS 23 Aug 17:29:18 17:32:21 38° 227° (SW) 17:35:24 437.550
nSIGHT-1 23 Aug 17:33:51 17:36:46 31° 228° (SW) 17:39:40 .
AO-7 23 Aug 17:34:25 17:41:01 26° 264° (W) 17:47:39 .
BEESAT 23 Aug 17:34:52 17:38:49 26° 291° (WNW) 17:42:46 436.000
XW-2F 23 Aug 17:45:41 17:46:41 11° 67° (ENE) 17:47:40 145.980 - 146.000
CUTE-I 23 Aug 17:48:29 17:51:59 18° 65° (ENE) 17:55:31 437.470
HO-68 23 Aug 18:00:28 18:02:45 12° 55° (NE) 18:05:01 435.675
KAITUO 1B 23 Aug 18:04:21 18:06:30 15° 69° (ENE) 18:08:41 145.475/437.950
ITUPSAT 1 23 Aug 18:13:14 18:14:55 12° 297° (WNW) 18:16:35 437.325
KKS-1 23 Aug 18:18:00 18:22:25 67° 102° (ESE) 18:26:48 437.445
NUDT-PHONESAT 23 Aug 18:31:09 18:34:24 31° 73° (ENE) 18:37:42 437.300
DOVE 4 23 Aug 18:32:02 18:37:11 52° 260° (W) 18:42:14 437.250
LilacSat-2 23 Aug 18:36:24 18:40:06 59° 76° (ENE) 18:43:51 437.200
XW-2D 23 Aug 18:36:43 18:40:22 57° 77° (ENE) 18:44:06 145.860 - 145.880
XW-2B 23 Aug 18:47:48 18:51:32 79° 76° (ENE) 18:55:19 145.730 - 145.750
STARS 23 Aug 18:47:54 18:52:12 56° 101° (E) 18:56:28 437.465
CUBESAT XI-V 23 Aug 18:57:57 19:01:18 20° 292° (WNW) 19:04:39 437.345
RS-15 23 Aug 18:58:29 19:08:42 30° 39° (NE) 19:18:26 29.354- 29.394
XW-2C 23 Aug 19:07:09 19:10:48 53° 260° (W) 19:14:31 145.795 - 145.815
CUTE 1.7 + AOD 2 23 Aug 19:14:11 19:17:41 26° 71° (ENE) 19:21:13 437.475
XW-2F 23 Aug 19:16:50 19:20:22 41° 261° (W) 19:23:57 145.980 - 146.000
O/OREOS (USA 219) 23 Aug 19:24:12 19:28:30 40° 66° (ENE) 19:32:49 437.305
CUTE-I 23 Aug 19:26:22 19:31:35 52° 260° (W) 19:36:48 437.470
KAITUO 1B 23 Aug 19:36:59 19:40:13 29° 263° (W) 19:43:30 145.475/437.950
HO-68 23 Aug 19:42:06 19:49:13 72° 72° (ENE) 19:56:21 435.675
UWE-3 23 Aug 19:44:40 19:47:16 16° 68° (ENE) 19:49:51 435.000/436.395/437.385
SEEDS 23 Aug 19:55:17 19:59:19 48° 74° (ENE) 20:03:24 437.485
CUBEBUG 2 23 Aug 19:57:02 20:01:02 41° 74° (ENE) 20:04:58 437.445
KKS-1 23 Aug 19:58:11 19:58:21 10° 297° (WNW) 19:58:31 437.445
NUDT-PHONESAT 23 Aug 20:06:40 20:08:22 13° 267° (W) 20:10:04 437.300
ZACube-1 23 Aug 20:16:46 20:19:48 20° 70° (ENE) 20:22:49 437.345
XW-2A 23 Aug 20:17:07 20:20:25 77° 78° (ENE) 20:23:44 145.665 - 145.685
STARS 23 Aug 20:26:34 20:28:00 11° 296° (WNW) 20:29:26 437.465
AAUSAT CUBESAT 2 23 Aug 20:31:10 20:35:14 55° 75° (ENE) 20:39:20 437.432
AO-73 23 Aug 20:35:23 20:38:58 29° 72° (ENE) 20:42:32 145.935
STRAND 1 23 Aug 20:44:43 20:49:48 66° 102° (ESE) 20:54:51 437.568
CUTE 1.7 + AOD 2 23 Aug 20:50:09 20:53:26 22° 265° (W) 20:56:45 437.475
O/OREOS (USA 219) 23 Aug 21:04:46 21:07:31 16° 260° (W) 21:10:16 437.305
RS-15 23 Aug 21:10:43 21:22:43 84° 243° (WSW) 21:34:01 29.354- 29.394
DELFI C3 23 Aug 21:10:43 21:12:00 11° 66° (ENE) 21:13:17 145.870
Oscar 11 23 Aug 21:15:52 21:20:07 67° 76° (ENE) 21:24:25 .
UWE-3 23 Aug 21:19:38 21:23:26 34° 262° (W) 21:27:13 435.000/436.395/437.385
HO-68 23 Aug 21:32:54 21:37:27 18° 267° (W) 21:42:02 435.675
SEEDS 23 Aug 21:33:51 21:35:14 11° 269° (W) 21:36:38 437.485
CUBEBUG 2 23 Aug 21:35:46 21:37:48 13° 267° (W) 21:39:48 437.445
PCSat 23 Aug 21:43:23 21:47:40 24° 107° (ESE) 21:51:59 145.827
FO-29 23 Aug 21:45:32 21:49:04 18° 92° (E) 21:52:30 435.910
Max Valier Satellite 23 Aug 21:49:28 21:52:23 23° 71° (ENE) 21:55:19 145.860
ZACube-1 23 Aug 21:52:23 21:55:54 26° 264° (W) 21:59:24 437.345
AO-73 23 Aug 22:12:23 22:15:12 18° 266° (W) 22:18:02 145.935
STRAND 1 23 Aug 22:26:00 22:28:22 13° 297° (WNW) 22:30:44 437.568
EO-88 23 Aug 22:35:31 22:39:08 78° 77° (ENE) 22:42:47 145.990 - 145.960
DELFI C3 23 Aug 22:42:27 22:46:18 47° 261° (W) 22:50:11 145.870
UNISAT 6 23 Aug 23:04:22 23:08:36 51° 100° (E) 23:12:56 437.425
SO-50 23 Aug 23:08:43 23:13:13 77° 301° (WNW) 23:17:44 436.795
Max Valier Satellite 23 Aug 23:23:42 23:26:10 17° 265° (W) 23:28:38 145.860
PCSat 23 Aug 23:25:45 23:30:47 39° 302° (WNW) 23:35:53 145.827
RS-15 23 Aug 23:26:33 23:33:08 17° 262° (W) 23:39:36 29.354- 29.394
FO-29 23 Aug 23:29:23 23:34:28 43° 289° (WNW) 23:39:19 435.910
NO-84 23 Aug 23:35:41 23:36:45 11° 125° (SE) 23:37:49 435.350 FM
TIGRISAT 23 Aug 23:38:27 23:42:46 68° 284° (WNW) 23:47:09 435.000
PRISM 23 Aug 23:45:25 23:49:33 78° 283° (WNW) 23:53:36 437.425
LO-87 23 Aug 23:54:41 23:58:16 85° 258° (WSW) 00:01:51 145.935 - 145.965
SPROUT 23 Aug 23:59:37 00:01:47 14° 66° (ENE) 00:03:55 437.525
AIST 2D 24 Aug 00:10:39 00:13:48 29° 97° (E) 00:16:56 435.315
VELOX 1 24 Aug 00:16:09 00:19:11 18° 67° (ENE) 00:22:13 145.980
M-CUBED/EXP-1 PRIME 24 Aug 00:21:17 00:24:17 19° 98° (E) 00:27:07 437.505
ESTCUBE 1 24 Aug 00:22:23 00:26:52 70° 259° (W) 00:31:24 437.505/2401.250
NANOSAT C BR1 24 Aug 00:29:49 00:32:40 18° 95° (E) 00:35:32 145.865
POLYITAN 1 24 Aug 00:37:11 00:40:40 25° 96° (E) 00:44:08 437.675
UNISAT 6 24 Aug 00:43:02 00:44:52 12° 294° (WNW) 00:46:42 437.425
EO-79 24 Aug 00:51:41 00:55:35 37° 98° (E) 00:59:28 145.935-145.965
QB50P2 24 Aug 00:52:08 00:56:09 41° 99° (E) 01:00:09 145.880/145.840
NO-84 24 Aug 01:11:05 01:13:53 35° 317° (NW) 01:16:33 435.350 FM
UKube-1 24 Aug 01:15:14 01:17:32 14° 66° (ENE) 01:19:51 .
DUCHIFAT 1 24 Aug 01:17:23 01:21:32 60° 101° (E) 01:25:39 145.980
SPROUT 24 Aug 01:33:12 01:37:15 43° 261° (W) 01:41:20 437.525
DX 1 24 Aug 01:41:45 01:45:55 45° 73° (ENE) 01:50:06 434.975-435.025
50 SAT 24 Aug 01:42:13 01:45:35 63° 76° (ENE) 01:48:58 437.505
AIST 2D 24 Aug 01:44:55 01:46:41 13° 291° (WNW) 01:48:27 435.315
YUBILEINY 24 Aug 01:46:33 01:49:42 12° 63° (ENE) 01:52:50 435.215
VELOX 1 24 Aug 01:51:14 01:55:19 36° 262° (W) 01:59:25 145.980
M-CUBED/EXP-1 PRIME 24 Aug 01:55:05 01:58:43 28° 295° (WNW) 02:02:05 437.505
NANOSAT C BR1 24 Aug 02:04:41 02:08:23 31° 288° (WNW) 02:12:05 145.865
Oscar 19 24 Aug 02:05:44 02:09:54 24° 95° (E) 02:14:02 437.125/150
Gurwin Techsat 1B 24 Aug 02:07:33 02:10:41 16° 93° (E) 02:13:47 435.225
POLYITAN 1 24 Aug 02:12:59 02:16:18 23° 290° (WNW) 02:19:37 437.675
EO-79 24 Aug 02:28:28 02:31:00 16° 293° (WNW) 02:33:32 145.935-145.965
QB50P2 24 Aug 02:29:19 02:31:32 14° 293° (WNW) 02:33:45 145.880/145.840
BUGSAT 1 24 Aug 02:39:23 02:43:18 53° 286° (WNW) 02:47:15 437.445
UKube-1 24 Aug 02:49:01 02:53:09 44° 260° (W) 02:57:18 .
BEESAT 24 Aug 03:00:54 03:04:38 23° 68° (ENE) 03:08:22 436.000
DX 1 24 Aug 03:20:09 03:22:17 13° 267° (W) 03:24:25 434.975-435.025
ITUPSAT 1 24 Aug 03:36:34 03:41:11 55° 73° (ENE) 03:45:50 437.325
YUBILEINY 24 Aug 03:39:17 03:48:00 75° 82° (E) 03:56:41 435.215
Oscar 19 24 Aug 03:44:31 03:49:13 35° 290° (WNW) 03:53:54 437.125/150
Gurwin Techsat 1B 24 Aug 03:45:43 03:50:54 55° 287° (WNW) 03:56:04 435.225
AO-7 24 Aug 03:45:55 03:52:11 23° 95° (E) 03:58:22 .
MOZHAYETS 4 24 Aug 03:50:28 03:54:58 65° 76° (ENE) 03:59:29
BEESAT 3 24 Aug 04:19:57 04:23:33 34° 114° (ESE) 04:27:13 437.485
CUBESAT XI-V 24 Aug 04:20:25 04:24:15 26° 70° (ENE) 04:28:06 437.345
BEESAT 24 Aug 04:38:01 04:42:12 31° 263° (W) 04:46:25 436.000
AO-85 24 Aug 04:38:58 04:42:28 30° 113° (ESE) 04:45:55 145.980
BEESAT 2 24 Aug 04:42:55 04:45:39 18° 110° (ESE) 04:48:25 435.950
ITAMSAT 1 24 Aug 05:11:16 05:16:28 81° 285° (WNW) 05:21:37 435.822/435.867
KKS-1 24 Aug 05:12:54 05:17:07 42° 72° (ENE) 05:21:19 437.445
ITUPSAT 1 24 Aug 05:17:14 05:19:18 13° 268° (W) 05:21:22 437.325
AO-7 24 Aug 05:37:11 05:45:25 67° 291° (WNW) 05:53:36 .
YUBILEINY 24 Aug 05:38:10 05:43:46 19° 280° (W) 05:49:22 435.215
STARS 24 Aug 05:41:30 05:45:28 34° 71° (ENE) 05:49:26 437.465
CUBESAT XI-V 24 Aug 05:57:34 06:01:29 27° 264° (W) 06:05:26 437.345
BEESAT 3 24 Aug 05:58:20 06:01:12 19° 309° (NW) 06:04:06 437.485
BEESAT 2 24 Aug 06:19:32 06:23:08 32° 305° (NW) 06:26:47 435.950
AO-85 24 Aug 06:20:03 06:22:52 19° 309° (NW) 06:25:40 145.980
XW-2B 24 Aug 06:26:02 06:26:28 10° 92° (E) 06:26:55 145.730 - 145.750
DOVE 4 24 Aug 06:34:28 06:38:46 53° 99° (E) 06:42:52 437.250
PCSat 24 Aug 06:35:01 06:37:19 13° 46° (NE) 06:39:36 145.827
XW-2C 24 Aug 06:43:12 06:45:56 18° 95° (E) 06:48:40 145.795 - 145.815
KKS-1 24 Aug 06:51:15 06:53:48 15° 266° (W) 06:56:22 437.445
XW-2F 24 Aug 06:52:00 06:55:03 22° 96° (E) 06:58:05 145.980 - 146.000
KAITUO 1B 24 Aug 07:10:35 07:13:58 30° 97° (E) 07:17:19 145.475/437.950
HO-68 24 Aug 07:15:33 07:19:17 15° 91° (E) 07:22:59 435.675
STARS 24 Aug 07:18:52 07:21:51 18° 265° (W) 07:24:50 437.465
AO-7 24 Aug 07:33:19 07:36:37 13° 310° (NW) 07:39:54 .
NUDT-PHONESAT 24 Aug 07:37:21 07:41:06 69° 100° (E) 07:44:51 437.300
SO-50 24 Aug 07:42:42 07:47:01 40° 56° (NE) 07:51:22 436.795
XW-2D 24 Aug 07:45:53 07:49:41 59° 284° (WNW) 07:53:28 145.860 - 145.880
CUTE-I 24 Aug 07:46:13 07:51:33 81° 103° (ESE) 07:56:50 437.470
NO-84 24 Aug 07:46:19 07:48:49 23° 41° (NE) 07:51:28 435.350 FM
LilacSat-2 24 Aug 07:46:24 07:50:13 57° 284° (WNW) 07:54:01 437.200
CUBEBUG 2 24 Aug 07:52:50 07:53:46 11° 92° (E) 07:54:42 437.445
Tancredo 1 24 Aug 07:54:12 07:56:59 46° 135° (SE) 07:59:47 437.200
XW-2B 24 Aug 07:57:10 08:00:50 44° 286° (WNW) 08:04:30 145.730 - 145.750
STRAND 1 24 Aug 07:57:30 08:02:34 69° 75° (ENE) 08:07:39 437.568
DOVE 4 24 Aug 08:14:27 08:15:53 11° 296° (WNW) 08:17:17 437.250
PCSat 24 Aug 08:16:02 08:21:29 87° 59° (ENE) 08:26:53 145.827
XW-2C 24 Aug 08:16:53 08:20:03 25° 289° (WNW) 08:23:13 145.795 - 145.815
AAUSAT CUBESAT 2 24 Aug 08:18:44 08:19:41 11° 91° (E) 08:20:39 437.432
XW-2F 24 Aug 08:26:09 08:29:01 20° 290° (WNW) 08:31:53 145.980 - 146.000
ISS 24 Aug 08:30:57 08:33:41 24° 131° (SE) 08:36:25 437.550
nSIGHT-1 24 Aug 08:34:15 08:37:06 28° 131° (SE) 08:39:58 .
CUTE 1.7 + AOD 2 24 Aug 08:36:37 08:40:56 78° 101° (ESE) 08:45:12 437.475
KAITUO 1B 24 Aug 08:45:25 08:47:40 15° 291° (WNW) 08:49:54 145.475/437.950
HO-68 24 Aug 09:00:29 09:07:40 83° 287° (WNW) 09:14:50 435.675
Oscar 11 24 Aug 09:07:13 09:09:52 16° 93° (E) 09:12:29 .
UWE-3 24 Aug 09:11:07 09:15:21 54° 100° (E) 09:19:41 435.000/436.395/437.385
XW-2A 24 Aug 09:14:01 09:17:23 62° 283° (WNW) 09:20:46 145.665 - 145.685
SEEDS 24 Aug 09:17:15 09:21:26 55° 285° (WNW) 09:25:34 437.485
RS-15 24 Aug 09:21:38 09:29:15 19° 98° (E) 09:36:54 29.354- 29.394
NO-84 24 Aug 09:23:37 09:26:08 22° 233° (SW) 09:28:47 435.350 FM
SO-50 24 Aug 09:23:59 09:27:10 19° 250° (WSW) 09:30:22 436.795
CUBEBUG 2 24 Aug 09:26:28 09:30:37 53° 285° (WNW) 09:34:52 437.445
CUTE-I 24 Aug 09:29:07 09:30:50 12° 299° (WNW) 09:32:34 437.470
Tancredo 1 24 Aug 09:30:32 09:32:18 15° 330° (NNW) 09:34:05 437.200
O/OREOS (USA 219) 24 Aug 09:33:12 09:37:39 85° 113° (ESE) 09:42:09 437.305
FO-29 24 Aug 09:35:43 09:43:04 57° 73° (ENE) 09:49:44 435.910
STRAND 1 24 Aug 09:40:38 09:42:10 11° 269° (W) 09:43:42 437.568
ZACube-1 24 Aug 09:42:14 09:46:34 67° 100° (E) 09:50:59 437.345
AAUSAT CUBESAT 2 24 Aug 09:51:21 09:55:23 49° 285° (WNW) 09:59:24 437.432
UNISAT 6 24 Aug 10:00:31 10:04:18 30° 72° (ENE) 10:08:03 437.425
AO-73 24 Aug 10:01:06 10:05:27 82° 283° (WNW) 10:09:53 145.935
ISS 24 Aug 10:07:12 10:10:05 27° 326° (NW) 10:12:57 437.550
nSIGHT-1 24 Aug 10:10:43 10:13:28 24° 327° (NNW) 10:16:13 .
JUGNU 24 Aug 10:13:52 10:17:12 15° 173° (S) 10:20:33 437.505
DELFI C3 24 Aug 10:22:34 10:25:52 24° 96° (E) 10:29:06 145.870
PRISM 24 Aug 10:31:17 10:35:16 47° 74° (ENE) 10:39:17 437.425
TIGRISAT 24 Aug 10:33:54 10:38:11 71° 77° (ENE) 10:42:26 435.000
Oscar 11 24 Aug 10:42:03 10:46:05 38° 287° (WNW) 10:50:06 .
UWE-3 24 Aug 10:49:49 10:51:20 12° 294° (WNW) 10:52:52 435.000/436.395/437.385
HO-68 24 Aug 10:50:55 10:54:18 14° 304° (WNW) 10:57:41 435.675
Max Valier Satellite 24 Aug 10:54:58 10:58:35 48° 99° (E) 11:02:11 145.860
M-CUBED/EXP-1 PRIME 24 Aug 11:03:30 11:06:43 19° 62° (ENE) 11:09:57 437.505
FO-29 24 Aug 11:22:17 11:28:12 25° 265° (W) 11:33:45 435.910
RS-15 24 Aug 11:27:43 11:39:55 86° 117° (ESE) 11:52:20 29.354- 29.394
POLYITAN 1 24 Aug 11:28:14 11:30:14 13° 66° (ENE) 11:32:13 437.675
UNISAT 6 24 Aug 11:37:58 11:41:01 19° 265° (W) 11:44:03 437.425
EO-88 24 Aug 11:40:32 11:44:06 49° 285° (WNW) 11:47:39 145.990 - 145.960
EO-79 24 Aug 11:41:48 11:44:47 19° 69° (ENE) 11:47:46 145.935-145.965
QB50P2 24 Aug 11:42:16 11:45:29 22° 69° (ENE) 11:48:41 145.880/145.840
DELFI C3 24 Aug 11:57:32 12:00:26 20° 290° (WNW) 12:03:19 145.870
JUGNU 24 Aug 12:01:48 12:05:28 17° 183° (S) 12:09:08 437.505
DUCHIFAT 1 24 Aug 12:06:21 12:09:56 29° 71° (ENE) 12:13:32 145.980
PRISM 24 Aug 12:09:19 12:10:45 11° 267° (W) 12:12:11 437.425
AIST 2D 24 Aug 12:14:22 12:17:46 56° 260° (W) 12:21:14 435.315
ESTCUBE 1 24 Aug 12:18:03 12:22:03 30° 97° (E) 12:26:01 437.505/2401.250
SRMSAT 24 Aug 12:21:28 12:24:02 13° 169° (S) 12:26:33 437.500
M-CUBED/EXP-1 PRIME 24 Aug 12:36:28 12:40:43 41° 257° (WSW) 12:45:08 437.505
NANOSAT C BR1 24 Aug 12:52:56 12:57:04 64° 259° (W) 13:01:13 145.865
LO-87 24 Aug 12:57:46 13:01:06 41° 286° (WNW) 13:04:27 145.935 - 145.965
POLYITAN 1 24 Aug 13:01:36 13:05:36 44° 261° (W) 13:09:37 437.675
AO-85 24 Aug 13:12:46 13:15:18 15° 49° (NE) 13:17:55 145.980
EO-79 24 Aug 13:16:39 13:20:18 29° 263° (W) 13:23:59 145.935-145.965
QB50P2 24 Aug 13:17:34 13:21:06 26° 263° (W) 13:24:38 145.880/145.840
Oscar 19 24 Aug 13:19:45 13:23:58 26° 68° (ENE) 13:28:13 437.125/150
SPROUT 24 Aug 13:21:35 13:25:30 36° 98° (E) 13:29:24 437.525
BUGSAT 1 24 Aug 13:25:35 13:29:37 66° 76° (ENE) 13:33:39 437.445
Gurwin Techsat 1B 24 Aug 13:25:40 13:29:26 20° 66° (ENE) 13:33:13 435.225
DUCHIFAT 1 24 Aug 13:42:36 13:45:34 19° 265° (W) 13:48:33 145.980
RS-15 24 Aug 13:43:41 13:54:03 30° 321° (NW) 14:04:30 29.354- 29.394
VELOX 1 24 Aug 13:43:42 13:48:00 51° 100° (E) 13:52:15 145.980
JUGNU 24 Aug 13:51:44 13:53:42 12° 193° (SSW) 13:55:39 437.505
ESTCUBE 1 24 Aug 13:55:09 13:58:38 22° 291° (WNW) 14:02:06 437.505/2401.250
SRMSAT 24 Aug 14:08:45 14:12:25 17° 179° (S) 14:16:04 437.500
BEESAT 3 24 Aug 14:16:19 14:20:18 78° 242° (WSW) 14:24:11 437.485
Tancredo 1 24 Aug 14:19:40 14:21:27 15° 30° (NNE) 14:23:14 437.200
UKube-1 24 Aug 14:38:50 14:42:47 35° 99° (E) 14:46:43 .
50 SAT 24 Aug 14:38:51 14:42:13 82° 283° (WNW) 14:45:32 437.505
BEESAT 2 24 Aug 14:39:19 14:43:19 55° 59° (ENE) 14:47:13 435.950
AO-7 24 Aug 14:42:00 14:48:37 27° 59° (ENE) 14:55:13 .
YUBILEINY 24 Aug 14:44:24 14:49:08 16° 79° (ENE) 14:53:50 435.215
ITAMSAT 1 24 Aug 14:50:19 14:52:33 13° 62° (ENE) 14:54:46 435.822/435.867
AO-85 24 Aug 14:51:36 14:55:57 58° 243° (WSW) 15:00:37 145.980
SPROUT 24 Aug 14:58:27 15:01:05 16° 292° (WNW) 15:03:42 437.525
Oscar 19 24 Aug 14:58:34 15:03:07 32° 263° (W) 15:07:43 437.125/150
ISS 24 Aug 15:01:39 15:03:16 13° 26° (NNE) 15:04:53 437.550
Gurwin Techsat 1B 24 Aug 15:03:55 15:08:59 45° 260° (W) 15:14:06 435.225
nSIGHT-1 24 Aug 15:04:34 15:06:22 14° 27° (NNE) 15:08:10 .
DX 1 24 Aug 15:08:36 15:12:53 62° 285° (WNW) 15:17:09 434.975-435.025
VELOX 1 24 Aug 15:22:00 15:23:57 13° 295° (WNW) 15:25:54 145.980
ITUPSAT 1 24 Aug 15:40:57 15:44:11 18° 94° (E) 15:47:22 437.325
MOZHAYETS 4 24 Aug 15:49:13 15:52:31 19° 94° (E) 15:55:49
Tancredo 1 24 Aug 15:53:59 15:56:45 44° 226° (SW) 15:59:31 437.200
SRMSAT 24 Aug 15:57:50 16:00:49 14° 189° (S) 16:03:47 437.500
RS-15 24 Aug 16:06:39 16:12:37 14° 356° (N) 16:18:32 29.354- 29.394
UKube-1 24 Aug 16:15:41 16:18:29 17° 293° (WNW) 16:21:18 .
BEESAT 2 24 Aug 16:20:12 16:20:30 10° 253° (WSW) 16:20:48 435.950
ITAMSAT 1 24 Aug 16:26:11 16:31:21 71° 258° (WSW) 16:36:33 435.822/435.867
AO-7 24 Aug 16:32:26 16:40:43 64° 256° (WSW) 16:49:02 .
YUBILEINY 24 Aug 16:35:51 16:44:40 87° 276° (W) 16:53:28 435.215
ISS 24 Aug 16:36:53 16:40:09 88° 210° (SSW) 16:43:24 437.550
nSIGHT-1 24 Aug 16:39:51 16:43:05 75° 225° (SW) 16:46:18 .
BEESAT 24 Aug 16:40:12 16:44:59 82° 103° (ESE) 16:49:45 436.000
